Wetterdaten: Donnerstag, 02.04.2015
Datum Zeit Auen-Temp. Temp gefhlt Luftfeuchte Luftdruck Regen Wind Richtung Richtung Taupunkt Windben
02.04.2015 00:00 0,7 C -0,2 C 75 % 1021,1 hPa 0,0 mm 22,2 km/h (4 Bft) W-NW 292 -3,2 C 22,9 km/h (4 Bft)
02.04.2015 00:05 0,7 C -0,2 C 75 % 1020,9 hPa 0,0 mm 20,4 km/h (4 Bft) W-NW 292 -3,2 C 22,2 km/h (4 Bft)
02.04.2015 00:10 0,8 C -0,1 C 75 % 1020,9 hPa 0,0 mm 20,0 km/h (4 Bft) W 270 -3,1 C 33,3 km/h (5 Bft)
02.04.2015 00:15 1,0 C 0,1 C 74 % 1020,9 hPa 0,0 mm 22,2 km/h (4 Bft) S-SW 202 -3,1 C 43,7 km/h (6 Bft)
02.04.2015 00:20 1,0 C 0,0 C 74 % 1020,9 hPa 0,0 mm 24,1 km/h (4 Bft) W-SW 247 -3,1 C 27,0 km/h (4 Bft)
02.04.2015 00:25 1,0 C 0,1 C 74 % 1020,8 hPa 0,0 mm 22,2 km/h (4 Bft) W-SW 247 -3,1 C 58,5 km/h (7 Bft)
02.04.2015 00:30 1,1 C 0,1 C 73 % 1020,8 hPa 0,0 mm 24,4 km/h (4 Bft) SW 225 -3,2 C 24,4 km/h (4 Bft)
02.04.2015 00:35 1,0 C 0,0 C 73 % 1020,8 hPa 0,0 mm 30,7 km/h (5 Bft) W-NW 292 -3,3 C 65,9 km/h (8 Bft)
02.04.2015 00:40 0,8 C -0,2 C 74 % 1020,8 hPa 0,0 mm 29,2 km/h (5 Bft) W-SW 247 -3,3 C 28,5 km/h (4 Bft)
02.04.2015 00:45 0,7 C -0,3 C 75 % 1020,6 hPa 0,0 mm 24,8 km/h (4 Bft) W-SW 247 -3,2 C 30,4 km/h (5 Bft)
02.04.2015 00:50 0,6 C -0,4 C 76 % 1020,6 hPa 0,0 mm 22,9 km/h (4 Bft) W 270 -3,1 C 13,3 km/h (3 Bft)
02.04.2015 00:55 0,5 C -0,4 C 76 % 1020,6 hPa 0,0 mm 21,1 km/h (4 Bft) W 270 -3,2 C 34,1 km/h (5 Bft)
02.04.2015 01:00 0,6 C -0,4 C 76 % 1020,6 hPa 0,0 mm 19,6 km/h (3 Bft) SW 225 -3,1 C 17,4 km/h (3 Bft)
02.04.2015 01:05 0,6 C -0,3 C 76 % 1020,5 hPa 0,0 mm 20,7 km/h (4 Bft) W-SW 247 -3,1 C 38,1 km/h (5 Bft)
02.04.2015 01:10 0,6 C -0,7 C 76 % 1020,5 hPa 0,0 mm 21,1 km/h (4 Bft) W 270 -3,1 C 22,2 km/h (4 Bft)
02.04.2015 01:15 0,4 C -0,5 C 76 % 1020,5 hPa 0,0 mm 18,5 km/h (3 Bft) NW 315 -3,3 C 22,6 km/h (4 Bft)
02.04.2015 01:20 0,6 C -0,6 C 76 % 1020,5 hPa 0,0 mm 17,4 km/h (3 Bft) W-SW 247 -3,1 C 42,6 km/h (6 Bft)
02.04.2015 01:25 0,7 C -0,2 C 75 % 1020,4 hPa 0,0 mm 20,0 km/h (4 Bft) W-SW 247 -3,2 C 21,8 km/h (4 Bft)
02.04.2015 01:30 0,6 C -0,7 C 75 % 1020,4 hPa 0,0 mm 19,6 km/h (3 Bft) W-NW 292 -3,3 C 11,8 km/h (2 Bft)
02.04.2015 01:35 0,5 C -0,6 C 75 % 1020,4 hPa 0,0 mm 15,9 km/h (3 Bft) W-NW 292 -3,4 C 20,4 km/h (4 Bft)
02.04.2015 01:40 0,6 C -0,5 C 75 % 1020,4 hPa 0,0 mm 15,5 km/h (3 Bft) W-SW 247 -3,3 C 43,3 km/h (6 Bft)
02.04.2015 01:45 0,6 C -0,6 C 74 % 1020,1 hPa 0,0 mm 16,7 km/h (3 Bft) SW 225 -3,5 C 25,5 km/h (4 Bft)
02.04.2015 01:50 0,5 C -0,6 C 74 % 1020,1 hPa 0,0 mm 16,7 km/h (3 Bft) SW 225 -3,6 C 21,1 km/h (4 Bft)
02.04.2015 01:55 0,6 C -0,6 C 73 % 1020,1 hPa 0,0 mm 17,4 km/h (3 Bft) W-SW 247 -3,7 C 22,2 km/h (4 Bft)
02.04.2015 02:00 0,7 C -0,2 C 73 % 1020,1 hPa 0,0 mm 18,5 km/h (3 Bft) W 270 -3,6 C 20,0 km/h (4 Bft)
02.04.2015 02:05 1,0 C 0,0 C 73 % 1019,9 hPa 0,0 mm 21,8 km/h (4 Bft) SW 225 -3,3 C 31,5 km/h (5 Bft)
02.04.2015 02:10 0,9 C -0,1 C 72 % 1019,9 hPa 0,0 mm 23,7 km/h (4 Bft) W 270 -3,6 C 57,0 km/h (7 Bft)
02.04.2015 02:15 1,0 C 0,0 C 72 % 1019,9 hPa 0,0 mm 24,1 km/h (4 Bft) W-SW 247 -3,5 C 15,9 km/h (3 Bft)
02.04.2015 02:20 1,0 C -0,4 C 72 % 1019,9 hPa 0,0 mm 23,7 km/h (4 Bft) W-SW 247 -3,5 C 27,8 km/h (4 Bft)
02.04.2015 02:25 1,0 C 0,1 C 72 % 1019,4 hPa 0,0 mm 19,2 km/h (3 Bft) W 270 -3,5 C 32,2 km/h (5 Bft)
02.04.2015 02:30 1,0 C 0,1 C 72 % 1019,4 hPa 0,0 mm 20,4 km/h (4 Bft) W-SW 247 -3,5 C 31,5 km/h (5 Bft)
02.04.2015 02:35 0,9 C -0,3 C 72 % 1019,4 hPa 0,0 mm 20,4 km/h (4 Bft) W-NW 292 -3,6 C 22,9 km/h (4 Bft)
02.04.2015 02:40 0,9 C 0,0 C 72 % 1019,4 hPa 0,0 mm 18,1 km/h (3 Bft) W 270 -3,6 C 19,6 km/h (3 Bft)
02.04.2015 02:45 0,9 C -0,2 C 73 % 1018,8 hPa 0,0 mm 16,7 km/h (3 Bft) W-SW 247 -3,4 C 25,5 km/h (4 Bft)
02.04.2015 02:50 0,9 C -0,2 C 73 % 1018,8 hPa 0,0 mm 17,4 km/h (3 Bft) W-SW 247 -3,4 C 20,0 km/h (4 Bft)
02.04.2015 02:55 0,8 C -0,2 C 73 % 1018,8 hPa 0,0 mm 16,3 km/h (3 Bft) W 270 -3,5 C 14,4 km/h (3 Bft)
02.04.2015 03:00 0,9 C -0,2 C 73 % 1018,8 hPa 0,0 mm 15,9 km/h (3 Bft) W 270 -3,4 C 26,7 km/h (4 Bft)
02.04.2015 03:05 0,9 C -0,2 C 73 % 1018,6 hPa 0,0 mm 17,4 km/h (3 Bft) W 270 -3,4 C 14,8 km/h (3 Bft)
02.04.2015 03:10 0,9 C 0,0 C 73 % 1018,6 hPa 0,0 mm 19,6 km/h (3 Bft) W-SW 247 -3,4 C 31,1 km/h (5 Bft)
02.04.2015 03:15 1,0 C 0,1 C 72 % 1018,6 hPa 0,0 mm 20,0 km/h (4 Bft) W 270 -3,5 C 29,6 km/h (5 Bft)
02.04.2015 03:20 0,9 C -0,3 C 72 % 1018,6 hPa 0,0 mm 20,4 km/h (4 Bft) W-SW 247 -3,6 C 26,7 km/h (4 Bft)
02.04.2015 03:25 0,8 C -0,3 C 73 % 1018,3 hPa 0,0 mm 17,4 km/h (3 Bft) W 270 -3,5 C 38,1 km/h (5 Bft)
02.04.2015 03:30 0,9 C -0,2 C 73 % 1018,3 hPa 0,0 mm 17,4 km/h (3 Bft) W-SW 247 -3,4 C 36,3 km/h (5 Bft)
02.04.2015 03:35 1,0 C 0,2 C 72 % 1018,3 hPa 0,0 mm 19,2 km/h (3 Bft) W-SW 247 -3,5 C 25,2 km/h (4 Bft)
02.04.2015 03:40 1,1 C 0,2 C 72 % 1018,3 hPa 0,0 mm 22,9 km/h (4 Bft) W 270 -3,4 C 27,4 km/h (4 Bft)
02.04.2015 03:45 0,9 C -0,1 C 75 % 1018,1 hPa 0,0 mm 25,5 km/h (4 Bft) W-SW 247 -3,0 C 23,3 km/h (4 Bft)
02.04.2015 03:50 0,8 C -0,1 C 75 % 1018,1 hPa 0,0 mm 20,0 km/h (4 Bft) W-NW 292 -3,1 C 21,8 km/h (4 Bft)
02.04.2015 03:55 0,6 C -0,4 C 76 % 1018,1 hPa 0,0 mm 15,9 km/h (3 Bft) W-SW 247 -3,1 C 31,1 km/h (5 Bft)
02.04.2015 04:00 0,5 C -0,5 C 77 % 1018,1 hPa 0,0 mm 15,9 km/h (3 Bft) SW 225 -3,1 C 19,2 km/h (3 Bft)
02.04.2015 04:05 0,4 C -0,4 C 78 % 1017,9 hPa 0,0 mm 18,1 km/h (3 Bft) W 270 -3,0 C 14,4 km/h (3 Bft)
02.04.2015 04:10 0,4 C -0,5 C 79 % 1017,9 hPa 0,0 mm 19,6 km/h (3 Bft) W-NW 292 -2,8 C 43,7 km/h (6 Bft)
02.04.2015 04:15 0,3 C -0,6 C 81 % 1017,9 hPa 0,0 mm 19,2 km/h (3 Bft) W-SW 247 -2,6 C 25,2 km/h (4 Bft)
02.04.2015 04:20 0,2 C -1,0 C 82 % 1017,9 hPa 0,0 mm 19,2 km/h (3 Bft) W-SW 247 -2,5 C 11,8 km/h (2 Bft)
02.04.2015 04:25 0,0 C -1,0 C 83 % 1017,8 hPa 0,0 mm 16,3 km/h (3 Bft) W-SW 247 -2,5 C 20,0 km/h (4 Bft)
02.04.2015 04:30 0,0 C -1,0 C 84 % 1017,8 hPa 0,0 mm 15,5 km/h (3 Bft) W-NW 292 -2,4 C 15,5 km/h (3 Bft)
02.04.2015 04:35 0,0 C -1,1 C 84 % 1017,8 hPa 0,0 mm 15,5 km/h (3 Bft) W-SW 247 -2,4 C 11,1 km/h (2 Bft)
02.04.2015 04:40 0,0 C -1,0 C 84 % 1017,8 hPa 0,0 mm 14,8 km/h (3 Bft) W-NW 292 -2,4 C 11,1 km/h (2 Bft)
02.04.2015 04:45 0,0 C -1,1 C 85 % 1017,2 hPa 0,0 mm 15,9 km/h (3 Bft) W-SW 247 -2,2 C 20,0 km/h (4 Bft)
02.04.2015 04:50 -0,2 C -1,1 C 79 % 1017,2 hPa 0,0 mm 17,0 km/h (3 Bft) NW 315 -3,4 C 17,4 km/h (3 Bft)
02.04.2015 04:55 -0,2 C -1,1 C 79 % 1017,2 hPa 0,0 mm 16,3 km/h (3 Bft) W-SW 247 -3,4 C 14,8 km/h (3 Bft)
02.04.2015 05:00 0,0 C -1,1 C 86 % 1017,2 hPa 0,0 mm 16,7 km/h (3 Bft) W 270 -2,1 C 20,7 km/h (4 Bft)
02.04.2015 05:05 0,0 C -1,1 C 86 % 1016,8 hPa 0,0 mm 15,9 km/h (3 Bft) W-SW 247 -2,1 C 40,0 km/h (6 Bft)
02.04.2015 05:10 0,0 C -0,9 C 79 % 1016,8 hPa 0,0 mm 14,8 km/h (3 Bft) W 270 -3,2 C 14,4 km/h (3 Bft)
02.04.2015 05:15 0,1 C -0,8 C 79 % 1016,8 hPa 0,0 mm 14,8 km/h (3 Bft) W-SW 247 -3,1 C 22,9 km/h (4 Bft)
02.04.2015 05:20 0,2 C -0,9 C 84 % 1016,8 hPa 0,0 mm 15,9 km/h (3 Bft) W-SW 247 -2,2 C 40,0 km/h (6 Bft)
02.04.2015 05:25 0,2 C -0,6 C 84 % 1016,2 hPa 0,0 mm 17,8 km/h (3 Bft) SW 225 -2,2 C 14,1 km/h (3 Bft)
02.04.2015 05:30 0,2 C -0,9 C 83 % 1016,2 hPa 0,0 mm 17,0 km/h (3 Bft) W-SW 247 -2,3 C 17,0 km/h (3 Bft)
02.04.2015 05:35 0,3 C -0,7 C 83 % 1016,2 hPa 0,0 mm 15,9 km/h (3 Bft) W-NW 292 -2,2 C 25,5 km/h (4 Bft)
02.04.2015 05:40 0,4 C -0,8 C 82 % 1016,2 hPa 0,0 mm 17,4 km/h (3 Bft) W-SW 247 -2,3 C 12,2 km/h (2 Bft)
02.04.2015 05:45 0,4 C -0,6 C 82 % 1016,1 hPa 0,0 mm 15,5 km/h (3 Bft) W 270 -2,3 C 15,9 km/h (3 Bft)
02.04.2015 05:50 0,4 C -0,6 C 81 % 1016,1 hPa 0,0 mm 14,4 km/h (3 Bft) W 270 -2,5 C 34,1 km/h (5 Bft)
02.04.2015 05:55 0,4 C -0,7 C 81 % 1016,1 hPa 0,0 mm 17,0 km/h (3 Bft) W 270 -2,5 C 15,9 km/h (3 Bft)
02.04.2015 06:00 0,4 C -0,7 C 81 % 1016,1 hPa 0,0 mm 16,3 km/h (3 Bft) W 270 -2,5 C 14,1 km/h (3 Bft)
02.04.2015 06:05 0,4 C -0,7 C 81 % 1015,9 hPa 0,0 mm 17,0 km/h (3 Bft) W 270 -2,5 C 13,3 km/h (3 Bft)
02.04.2015 06:10 0,4 C -0,4 C 81 % 1015,9 hPa 0,0 mm 17,8 km/h (3 Bft) W-SW 247 -2,5 C 25,2 km/h (4 Bft)
02.04.2015 06:15 0,5 C -0,6 C 80 % 1015,9 hPa 0,0 mm 17,4 km/h (3 Bft) W-SW 247 -2,5 C 11,1 km/h (2 Bft)
02.04.2015 06:20 0,4 C -0,7 C 80 % 1015,9 hPa 0,0 mm 17,0 km/h (3 Bft) W 270 -2,6 C 12,6 km/h (3 Bft)
02.04.2015 06:25 0,4 C -0,6 C 80 % 1015,6 hPa 0,0 mm 14,8 km/h (3 Bft) W-SW 247 -2,6 C 21,1 km/h (4 Bft)
02.04.2015 06:30 0,4 C -0,5 C 80 % 1015,6 hPa 0,0 mm 14,1 km/h (3 Bft) W-SW 247 -2,6 C 22,2 km/h (4 Bft)
02.04.2015 06:35 0,4 C -0,6 C 80 % 1015,6 hPa 0,0 mm 15,9 km/h (3 Bft) S-SO 157 -2,6 C 18,5 km/h (3 Bft)
02.04.2015 06:40 0,4 C -0,7 C 80 % 1015,6 hPa 0,0 mm 16,3 km/h (3 Bft) W-SW 247 -2,6 C 22,2 km/h (4 Bft)
02.04.2015 06:45 0,5 C -0,6 C 79 % 1015,1 hPa 0,0 mm 15,9 km/h (3 Bft) W 270 -2,7 C 19,6 km/h (3 Bft)
02.04.2015 06:50 0,6 C -0,5 C 79 % 1015,1 hPa 0,0 mm 16,7 km/h (3 Bft) W 270 -2,6 C 25,5 km/h (4 Bft)
02.04.2015 06:55 0,6 C -0,5 C 79 % 1015,1 hPa 0,0 mm 17,4 km/h (3 Bft) W-SW 247 -2,6 C 23,7 km/h (4 Bft)
02.04.2015 07:00 0,7 C -0,1 C 78 % 1015,1 hPa 0,0 mm 18,9 km/h (3 Bft) W-SW 247 -2,7 C 24,4 km/h (4 Bft)
02.04.2015 07:05 0,8 C -0,1 C 77 % 1014,6 hPa 0,0 mm 19,6 km/h (3 Bft) W 270 -2,8 C 26,7 km/h (4 Bft)
02.04.2015 07:10 0,8 C -0,1 C 77 % 1014,6 hPa 0,0 mm 19,2 km/h (3 Bft) W-SW 247 -2,8 C 20,0 km/h (4 Bft)
02.04.2015 07:15 0,9 C -0,2 C 76 % 1014,6 hPa 0,0 mm 17,4 km/h (3 Bft) W 270 -2,8 C 46,6 km/h (6 Bft)
02.04.2015 07:20 0,9 C -0,1 C 76 % 1014,6 hPa 0,0 mm 15,9 km/h (3 Bft) W-SW 247 -2,8 C 12,6 km/h (3 Bft)
02.04.2015 07:25 0,9 C 0,0 C 76 % 1014,7 hPa 0,0 mm 15,2 km/h (3 Bft) W 270 -2,8 C 39,2 km/h (6 Bft)
02.04.2015 07:30 0,9 C 0,0 C 76 % 1014,7 hPa 0,0 mm 14,4 km/h (3 Bft) SW 225 -2,8 C 24,4 km/h (4 Bft)
02.04.2015 07:35 1,0 C 0,0 C 76 % 1014,7 hPa 0,0 mm 15,9 km/h (3 Bft) W 270 -2,7 C 25,5 km/h (4 Bft)
02.04.2015 07:40 1,1 C 0,1 C 76 % 1014,7 hPa 0,0 mm 15,9 km/h (3 Bft) W-SW 247 -2,6 C 26,7 km/h (4 Bft)
02.04.2015 07:45 1,2 C 0,5 C 75 % 1014,2 hPa 0,0 mm 18,9 km/h (3 Bft) W-SW 247 -2,7 C 14,4 km/h (3 Bft)
02.04.2015 07:50 1,3 C 0,6 C 75 % 1014,2 hPa 0,0 mm 21,1 km/h (4 Bft) W-SW 247 -2,6 C 30,7 km/h (5 Bft)
02.04.2015 07:55 1,4 C 0,7 C 75 % 1014,2 hPa 0,0 mm 18,9 km/h (3 Bft) W-SW 247 -2,5 C 25,5 km/h (4 Bft)
02.04.2015 08:00 1,5 C 0,9 C 74 % 1014,2 hPa 0,0 mm 18,9 km/h (3 Bft) W 270 -2,6 C 28,1 km/h (4 Bft)
02.04.2015 08:05 1,6 C 0,7 C 74 % 1014,4 hPa 0,0 mm 21,1 km/h (4 Bft) W-SW 247 -2,5 C 41,8 km/h (6 Bft)
02.04.2015 08:10 1,8 C 1,0 C 73 % 1014,4 hPa 0,0 mm 22,6 km/h (4 Bft) W-NW 292 -2,5 C 33,3 km/h (5 Bft)
02.04.2015 08:15 1,8 C 1,1 C 73 % 1014,4 hPa 0,0 mm 24,1 km/h (4 Bft) W 270 -2,5 C 67,4 km/h (8 Bft)
02.04.2015 08:20 1,8 C 0,7 C 73 % 1014,4 hPa 0,0 mm 25,9 km/h (4 Bft) W-SW 247 -2,5 C 22,2 km/h (4 Bft)
02.04.2015 08:25 1,9 C 0,8 C 73 % 1014,2 hPa 0,0 mm 25,9 km/h (4 Bft) W-SW 247 -2,4 C 28,1 km/h (4 Bft)
02.04.2015 08:30 1,9 C 1,2 C 72 % 1014,2 hPa 0,0 mm 24,8 km/h (4 Bft) W 270 -2,6 C 45,9 km/h (6 Bft)
02.04.2015 08:35 1,9 C 1,4 C 72 % 1014,2 hPa 0,0 mm 24,8 km/h (4 Bft) W-NW 292 -2,6 C 29,6 km/h (5 Bft)
02.04.2015 08:40 2,0 C 1,4 C 72 % 1014,2 hPa 0,0 mm 22,9 km/h (4 Bft) W 270 -2,5 C 33,7 km/h (5 Bft)
02.04.2015 08:45 2,0 C 1,6 C 72 % 1014,1 hPa 0,0 mm 24,1 km/h (4 Bft) SW 225 -2,5 C 62,2 km/h (8 Bft)
02.04.2015 08:50 2,0 C 1,5 C 72 % 1014,1 hPa 0,0 mm 25,9 km/h (4 Bft) W-SW 247 -2,5 C 43,3 km/h (6 Bft)
02.04.2015 08:55 1,9 C 1,4 C 73 % 1014,1 hPa 0,0 mm 27,4 km/h (4 Bft) W-SW 247 -2,4 C 68,5 km/h (8 Bft)
02.04.2015 09:00 1,9 C 1,5 C 73 % 1014,1 hPa 0,0 mm 23,7 km/h (4 Bft) NW 315 -2,4 C 28,9 km/h (5 Bft)
02.04.2015 09:05 1,9 C 1,7 C 73 % 1013,9 hPa 0,0 mm 19,6 km/h (3 Bft) W-SW 247 -2,4 C 27,4 km/h (4 Bft)
02.04.2015 09:10 2,0 C 1,9 C 73 % 1013,9 hPa 0,0 mm 19,6 km/h (3 Bft) W-SW 247 -2,3 C 21,5 km/h (4 Bft)
02.04.2015 09:15 2,0 C 2,1 C 74 % 1013,9 hPa 0,0 mm 19,6 km/h (3 Bft) W 270 -2,1 C 20,0 km/h (4 Bft)
02.04.2015 09:20 2,1 C 1,9 C 74 % 1013,9 hPa 0,0 mm 20,4 km/h (4 Bft) W-SW 247 -2,0 C 27,4 km/h (4 Bft)
02.04.2015 09:25 2,2 C 2,2 C 74 % 1013,3 hPa 0,0 mm 21,8 km/h (4 Bft) W 270 -1,9 C 75,1 km/h (9 Bft)
02.04.2015 09:30 2,2 C 2,1 C 74 % 1013,3 hPa 0,0 mm 20,4 km/h (4 Bft) W-SW 247 -1,9 C 21,1 km/h (4 Bft)
02.04.2015 09:35 2,2 C 2,2 C 74 % 1013,3 hPa 0,0 mm 20,7 km/h (4 Bft) W-NW 292 -1,9 C 31,5 km/h (5 Bft)
02.04.2015 09:40 2,3 C 2,2 C 74 % 1013,3 hPa 0,0 mm 21,5 km/h (4 Bft) W-NW 292 -1,8 C 20,4 km/h (4 Bft)
02.04.2015 09:45 2,4 C 2,3 C 74 % 1013,2 hPa 0,0 mm 23,7 km/h (4 Bft) W-SW 247 -1,7 C 35,9 km/h (5 Bft)
02.04.2015 09:50 2,4 C 2,3 C 74 % 1013,2 hPa 0,0 mm 22,2 km/h (4 Bft) NW 315 -1,7 C 24,8 km/h (4 Bft)
02.04.2015 09:55 2,4 C 2,4 C 74 % 1013,2 hPa 0,0 mm 20,4 km/h (4 Bft) W-SW 247 -1,7 C 29,6 km/h (5 Bft)
02.04.2015 10:00 2,6 C 2,3 C 74 % 1013,2 hPa 0,0 mm 20,7 km/h (4 Bft) W-SW 247 -1,6 C 33,3 km/h (5 Bft)
02.04.2015 10:05 2,7 C 2,7 C 74 % 1012,6 hPa 0,0 mm 23,7 km/h (4 Bft) W-SW 247 -1,5 C 32,2 km/h (5 Bft)
02.04.2015 10:10 2,6 C 2,7 C 74 % 1012,6 hPa 0,0 mm 24,1 km/h (4 Bft) SO 135 -1,6 C 36,6 km/h (5 Bft)
02.04.2015 10:15 2,7 C 2,7 C 74 % 1012,6 hPa 0,0 mm 26,7 km/h (4 Bft) W-NW 292 -1,5 C 41,1 km/h (6 Bft)
02.04.2015 10:20 2,9 C 2,8 C 74 % 1012,6 hPa 0,0 mm 26,7 km/h (4 Bft) W 270 -1,3 C 21,1 km/h (4 Bft)
02.04.2015 10:25 3,0 C 2,9 C 73 % 1012,4 hPa 0,0 mm 27,0 km/h (4 Bft) W 270 -1,4 C 43,7 km/h (6 Bft)
02.04.2015 10:30 3,1 C 2,9 C 72 % 1012,4 hPa 0,0 mm 26,3 km/h (4 Bft) SW 225 -1,4 C 28,5 km/h (4 Bft)
02.04.2015 10:35 3,1 C 2,6 C 72 % 1012,4 hPa 0,0 mm 26,7 km/h (4 Bft) NW 315 -1,4 C 77,7 km/h (9 Bft)
02.04.2015 10:40 3,1 C 2,9 C 72 % 1012,4 hPa 0,0 mm 25,9 km/h (4 Bft) W-SW 247 -1,4 C 57,4 km/h (7 Bft)
02.04.2015 10:45 3,2 C 2,9 C 72 % 1012,4 hPa 0,0 mm 24,8 km/h (4 Bft) W-SW 247 -1,3 C 26,3 km/h (4 Bft)
02.04.2015 10:50 3,2 C 2,9 C 72 % 1012,4 hPa 0,0 mm 28,1 km/h (4 Bft) NW 315 -1,3 C 56,3 km/h (7 Bft)
02.04.2015 10:55 3,1 C 2,7 C 73 % 1012,4 hPa 0,0 mm 31,1 km/h (5 Bft) W-SW 247 -1,3 C 78,5 km/h (9 Bft)
02.04.2015 11:00 3,1 C 2,5 C 73 % 1012,4 hPa 0,0 mm 34,1 km/h (5 Bft) W 270 -1,3 C 46,3 km/h (6 Bft)
02.04.2015 11:05 3,1 C 2,5 C 73 % 1012,2 hPa 0,0 mm 27,0 km/h (4 Bft) W 270 -1,3 C 81,8 km/h (9 Bft)
02.04.2015 11:10 3,1 C 2,6 C 74 % 1012,2 hPa 0,0 mm 25,2 km/h (4 Bft) W-SW 247 -1,1 C 37,8 km/h (5 Bft)
02.04.2015 11:15 3,1 C 2,6 C 74 % 1012,2 hPa 0,7 mm 27,0 km/h (4 Bft) W-SW 247 -1,1 C 36,3 km/h (5 Bft)
02.04.2015 11:20 3,0 C 2,6 C 75 % 1012,2 hPa 0,0 mm 25,9 km/h (4 Bft) W 270 -1,0 C 32,6 km/h (5 Bft)
02.04.2015 11:25 3,0 C 2,5 C 75 % 1012,1 hPa 0,0 mm 27,0 km/h (4 Bft) W-SW 247 -1,0 C 28,9 km/h (5 Bft)
02.04.2015 11:30 3,1 C 2,6 C 75 % 1012,1 hPa 0,0 mm 28,9 km/h (5 Bft) W 270 -0,9 C 25,9 km/h (4 Bft)
02.04.2015 11:35 3,1 C 2,5 C 76 % 1012,1 hPa 0,0 mm 26,7 km/h (4 Bft) S 180 -0,7 C 29,2 km/h (5 Bft)
02.04.2015 11:40 3,1 C 2,2 C 76 % 1012,1 hPa 0,0 mm 24,8 km/h (4 Bft) NW 315 -0,7 C 25,5 km/h (4 Bft)
02.04.2015 11:45 3,1 C 2,2 C 76 % 1011,8 hPa 0,0 mm 26,3 km/h (4 Bft) W-SW 247 -0,7 C 53,3 km/h (7 Bft)
02.04.2015 11:50 3,1 C 2,5 C 77 % 1011,8 hPa 0,0 mm 27,4 km/h (4 Bft) W-NW 292 -0,5 C 31,1 km/h (5 Bft)
02.04.2015 11:55 3,1 C 2,5 C 77 % 1011,8 hPa 0,0 mm 26,3 km/h (4 Bft) W 270 -0,5 C 26,3 km/h (4 Bft)
02.04.2015 12:00 3,1 C 2,6 C 77 % 1011,8 hPa 0,0 mm 24,4 km/h (4 Bft) S-SW 202 -0,5 C 31,8 km/h (5 Bft)
02.04.2015 12:05 3,2 C 2,7 C 77 % 1011,8 hPa 0,0 mm 27,0 km/h (4 Bft) NW 315 -0,4 C 38,5 km/h (5 Bft)
02.04.2015 12:10 3,2 C 2,4 C 77 % 1011,8 hPa 0,0 mm 28,9 km/h (5 Bft) NW 315 -0,4 C 45,9 km/h (6 Bft)
02.04.2015 12:15 3,3 C 2,7 C 77 % 1011,8 hPa 0,0 mm 26,7 km/h (4 Bft) W 270 -0,3 C 16,7 km/h (3 Bft)
02.04.2015 12:20 3,2 C 2,7 C 77 % 1011,8 hPa 0,0 mm 27,8 km/h (4 Bft) W 270 -0,4 C 33,3 km/h (5 Bft)
02.04.2015 12:25 3,2 C 2,6 C 78 % 1011,8 hPa 0,0 mm 27,4 km/h (4 Bft) NW 315 -0,3 C 89,6 km/h (10 Bft)
02.04.2015 12:30 3,2 C 2,5 C 78 % 1011,8 hPa 0,0 mm 30,0 km/h (5 Bft) W-SW 247 -0,3 C 37,8 km/h (5 Bft)
02.04.2015 12:35 3,2 C 2,4 C 78 % 1011,8 hPa 0,7 mm 30,7 km/h (5 Bft) S-SW 202 -0,3 C 41,1 km/h (6 Bft)
02.04.2015 12:40 3,2 C 2,4 C 78 % 1011,8 hPa 0,0 mm 28,9 km/h (5 Bft) W 270 -0,3 C 42,2 km/h (6 Bft)
02.04.2015 12:45 3,1 C 2,4 C 78 % 1011,2 hPa 0,0 mm 27,4 km/h (4 Bft) SW 225 -0,4 C 33,7 km/h (5 Bft)
02.04.2015 12:50 3,1 C 2,4 C 78 % 1011,2 hPa 0,0 mm 27,4 km/h (4 Bft) W-SW 247 -0,4 C 32,9 km/h (5 Bft)
02.04.2015 12:55 3,1 C 2,5 C 79 % 1011,2 hPa 0,0 mm 26,7 km/h (4 Bft) SW 225 -0,2 C 37,4 km/h (5 Bft)
02.04.2015 13:00 3,2 C 2,4 C 79 % 1011,2 hPa 0,0 mm 28,9 km/h (5 Bft) S-SO 157 -0,1 C 30,0 km/h (5 Bft)
02.04.2015 13:05 3,2 C 2,3 C 79 % 1011,6 hPa 0,0 mm 31,1 km/h (5 Bft) W 270 -0,1 C 37,8 km/h (5 Bft)
02.04.2015 13:10 3,2 C 1,8 C 82 % 1011,6 hPa 0,0 mm 29,2 km/h (5 Bft) W 270 0,4 C 23,7 km/h (4 Bft)
02.04.2015 13:15 3,1 C 2,3 C 79 % 1011,6 hPa 0,7 mm 27,0 km/h (4 Bft) W-SW 247 -0,2 C 53,3 km/h (7 Bft)
02.04.2015 13:20 3,2 C 2,4 C 79 % 1011,6 hPa 0,0 mm 29,2 km/h (5 Bft) W-NW 292 -0,1 C 29,2 km/h (5 Bft)
02.04.2015 13:25 3,2 C 2,4 C 79 % 1011,2 hPa 0,0 mm 32,6 km/h (5 Bft) S-SW 202 -0,1 C 31,1 km/h (5 Bft)
02.04.2015 13:30 3,2 C 2,4 C 79 % 1011,2 hPa 0,0 mm 30,7 km/h (5 Bft) W 270 -0,1 C 28,9 km/h (5 Bft)
02.04.2015 13:35 3,3 C 2,5 C 79 % 1011,2 hPa 0,0 mm 28,5 km/h (4 Bft) W 270 0,0 C 37,4 km/h (5 Bft)
02.04.2015 13:40 3,3 C 2,5 C 79 % 1011,2 hPa 0,0 mm 26,7 km/h (4 Bft) W 270 0,0 C 17,4 km/h (3 Bft)
02.04.2015 13:45 3,3 C 2,8 C 79 % 1011,2 hPa 0,0 mm 25,2 km/h (4 Bft) W 270 0,0 C 38,9 km/h (6 Bft)
02.04.2015 13:50 3,4 C 2,8 C 80 % 1011,2 hPa 0,0 mm 29,2 km/h (5 Bft) W-SW 247 0,3 C 49,2 km/h (6 Bft)
02.04.2015 13:55 3,5 C 2,4 C 80 % 1011,2 hPa 0,0 mm 31,5 km/h (5 Bft) W-NW 292 0,4 C 38,9 km/h (6 Bft)
02.04.2015 14:00 3,5 C 2,7 C 80 % 1011,2 hPa 0,0 mm 30,4 km/h (5 Bft) W-SW 247 0,4 C 60,3 km/h (7 Bft)
02.04.2015 14:05 3,5 C 2,8 C 79 % 1011,6 hPa 0,0 mm 31,1 km/h (5 Bft) SW 225 0,2 C 51,1 km/h (7 Bft)
02.04.2015 14:10 3,5 C 2,4 C 80 % 1011,6 hPa 0,0 mm 31,1 km/h (5 Bft) W 270 0,4 C 53,7 km/h (7 Bft)
02.04.2015 14:15 3,6 C 2,9 C 80 % 1011,6 hPa 0,0 mm 30,4 km/h (5 Bft) W 270 0,5 C 26,3 km/h (4 Bft)
02.04.2015 14:20 3,6 C 2,9 C 80 % 1011,6 hPa 0,0 mm 28,9 km/h (5 Bft) W 270 0,5 C 20,0 km/h (4 Bft)
02.04.2015 14:25 3,6 C 2,9 C 80 % 1011,3 hPa 0,7 mm 25,5 km/h (4 Bft) W-SW 247 0,5 C 35,5 km/h (5 Bft)
02.04.2015 14:30 3,8 C 2,9 C 81 % 1011,3 hPa 0,0 mm 26,7 km/h (4 Bft) W-SW 247 0,8 C 43,3 km/h (6 Bft)
02.04.2015 14:35 3,7 C 2,8 C 82 % 1011,3 hPa 0,0 mm 28,9 km/h (5 Bft) W-SW 247 0,9 C 24,1 km/h (4 Bft)
02.04.2015 14:40 3,6 C 2,7 C 82 % 1011,3 hPa 0,0 mm 25,5 km/h (4 Bft) W-NW 292 0,8 C 46,3 km/h (6 Bft)
02.04.2015 14:45 3,7 C 2,8 C 81 % 1011,8 hPa 0,0 mm 27,0 km/h (4 Bft) W-SW 247 0,7 C 20,0 km/h (4 Bft)
02.04.2015 14:50 3,8 C 2,8 C 81 % 1011,8 hPa 0,0 mm 31,1 km/h (5 Bft) W 270 0,8 C 18,9 km/h (3 Bft)
02.04.2015 14:55 3,9 C 3,0 C 81 % 1011,8 hPa 0,0 mm 25,9 km/h (4 Bft) O-NO 67 0,9 C 19,6 km/h (3 Bft)
02.04.2015 15:00 3,9 C 3,1 C 80 % 1011,8 hPa 0,0 mm 25,2 km/h (4 Bft) S-SO 157 0,8 C 25,5 km/h (4 Bft)
02.04.2015 15:05 3,9 C 3,1 C 80 % 1011,8 hPa 0,0 mm 28,1 km/h (4 Bft) W 270 0,8 C 52,9 km/h (7 Bft)
02.04.2015 15:10 4,0 C 3,1 C 79 % 1011,8 hPa 0,0 mm 29,2 km/h (5 Bft) W-SW 247 0,7 C 26,3 km/h (4 Bft)
02.04.2015 15:15 4,1 C 3,2 C 79 % 1011,8 hPa 0,0 mm 30,0 km/h (5 Bft) W-SW 247 0,8 C 30,0 km/h (5 Bft)
02.04.2015 15:20 4,0 C 2,8 C 79 % 1011,8 hPa 0,0 mm 30,7 km/h (5 Bft) W 270 0,7 C 34,1 km/h (5 Bft)
02.04.2015 15:25 4,0 C 3,1 C 79 % 1012,3 hPa 0,0 mm 33,7 km/h (5 Bft) W-NW 292 0,7 C 48,9 km/h (6 Bft)
02.04.2015 15:30 4,0 C 3,0 C 78 % 1012,3 hPa 0,0 mm 31,1 km/h (5 Bft) SW 225 0,5 C 38,9 km/h (6 Bft)
02.04.2015 15:35 4,1 C 3,1 C 78 % 1012,3 hPa 0,0 mm 28,9 km/h (5 Bft) W 270 0,6 C 54,0 km/h (7 Bft)
02.04.2015 15:40 4,1 C 3,1 C 78 % 1012,3 hPa 0,0 mm 30,4 km/h (5 Bft) NW 315 0,6 C 50,7 km/h (7 Bft)
02.04.2015 15:45 4,1 C 3,1 C 78 % 1012,2 hPa 0,0 mm 34,4 km/h (5 Bft) W 270 0,6 C 64,4 km/h (8 Bft)
02.04.2015 15:50 4,2 C 3,1 C 78 % 1012,2 hPa 0,0 mm 37,0 km/h (5 Bft) W-NW 292 0,7 C 39,2 km/h (6 Bft)
02.04.2015 15:55 4,2 C 3,2 C 78 % 1012,2 hPa 0,0 mm 38,1 km/h (5 Bft) W 270 0,7 C 41,8 km/h (6 Bft)
02.04.2015 16:00 4,2 C 3,2 C 78 % 1012,2 hPa 0,0 mm 33,3 km/h (5 Bft) W 270 0,7 C 39,2 km/h (6 Bft)
02.04.2015 16:05 4,2 C 3,3 C 78 % 1012,2 hPa 0,0 mm 32,2 km/h (5 Bft) W 270 0,7 C 32,6 km/h (5 Bft)
02.04.2015 16:10 4,2 C 3,3 C 78 % 1012,2 hPa 0,0 mm 30,7 km/h (5 Bft) NW 315 0,7 C 38,9 km/h (6 Bft)
02.04.2015 16:15 4,3 C 3,4 C 78 % 1012,2 hPa 0,0 mm 31,8 km/h (5 Bft) W-NW 292 0,8 C 66,6 km/h (8 Bft)
02.04.2015 16:20 4,3 C 3,5 C 78 % 1012,2 hPa 0,0 mm 32,2 km/h (5 Bft) NW 315 0,8 C 53,3 km/h (7 Bft)
02.04.2015 16:25 4,3 C 3,7 C 77 % 1012,4 hPa 0,0 mm 32,6 km/h (5 Bft) W-SW 247 0,6 C 37,0 km/h (5 Bft)
02.04.2015 16:30 4,3 C 3,8 C 77 % 1012,4 hPa 0,0 mm 32,6 km/h (5 Bft) W 270 0,6 C 45,2 km/h (6 Bft)
02.04.2015 16:35 4,3 C 3,9 C 77 % 1012,4 hPa 0,0 mm 34,1 km/h (5 Bft) W 270 0,6 C 85,5 km/h (9 Bft)
02.04.2015 16:40 4,3 C 3,9 C 77 % 1012,4 hPa 0,0 mm 32,9 km/h (5 Bft) W-SW 247 0,6 C 27,0 km/h (4 Bft)
02.04.2015 16:45 4,3 C 4,1 C 77 % 1012,4 hPa 0,0 mm 32,6 km/h (5 Bft) W 270 0,6 C 36,3 km/h (5 Bft)
02.04.2015 16:50 4,3 C 4,2 C 77 % 1012,4 hPa 0,0 mm 33,7 km/h (5 Bft) W 270 0,6 C 70,7 km/h (8 Bft)
02.04.2015 16:55 4,3 C 4,1 C 77 % 1012,4 hPa 0,0 mm 38,5 km/h (5 Bft) W-SW 247 0,6 C 94,0 km/h (10 Bft)
02.04.2015 17:00 4,3 C 4,1 C 77 % 1012,4 hPa 0,0 mm 37,8 km/h (5 Bft) NW 315 0,6 C 31,1 km/h (5 Bft)
02.04.2015 17:05 4,3 C 3,8 C 77 % 1014,1 hPa 0,0 mm 32,2 km/h (5 Bft) NW 315 0,6 C 32,6 km/h (5 Bft)
02.04.2015 17:10 2,7 C 2,4 C 77 % 1014,1 hPa 0,0 mm 34,8 km/h (5 Bft) W 270 -0,9 C 65,1 km/h (8 Bft)
02.04.2015 17:15 1,0 C 0,4 C 81 % 1014,1 hPa 0,0 mm 34,4 km/h (5 Bft) NW 315 -1,9 C 31,1 km/h (5 Bft)
02.04.2015 17:20 0,8 C -0,2 C 83 % 1014,1 hPa 0,0 mm 34,8 km/h (5 Bft) W 270 -1,8 C 59,6 km/h (7 Bft)
02.04.2015 17:25 0,7 C -0,5 C 86 % 1015,0 hPa 0,0 mm 36,3 km/h (5 Bft) NW 315 -1,4 C 49,2 km/h (6 Bft)
02.04.2015 17:30 0,7 C -1,1 C 87 % 1015,0 hPa 0,0 mm 33,7 km/h (5 Bft) NW 315 -1,2 C 31,1 km/h (5 Bft)
02.04.2015 17:35 0,5 C -0,6 C 80 % 1015,0 hPa 0,0 mm 26,7 km/h (4 Bft) N-NW 337 -2,5 C 32,9 km/h (5 Bft)
02.04.2015 17:40 0,5 C -0,5 C 81 % 1015,0 hPa 0,0 mm 28,5 km/h (4 Bft) W-NW 292 -2,4 C 33,7 km/h (5 Bft)
02.04.2015 17:45 0,4 C -0,5 C 81 % 1015,4 hPa 0,0 mm 24,4 km/h (4 Bft) W 270 -2,5 C 31,5 km/h (5 Bft)
02.04.2015 17:50 0,4 C -0,4 C 82 % 1015,4 hPa 0,0 mm 22,2 km/h (4 Bft) W-SW 247 -2,3 C 18,1 km/h (3 Bft)
02.04.2015 17:55 0,4 C -0,8 C 82 % 1015,4 hPa 0,0 mm 22,6 km/h (4 Bft) W-NW 292 -2,3 C 23,3 km/h (4 Bft)
02.04.2015 18:00 0,4 C -0,4 C 82 % 1015,4 hPa 0,0 mm 24,1 km/h (4 Bft) W 270 -2,3 C 34,8 km/h (5 Bft)
02.04.2015 18:05 0,3 C -0,5 C 83 % 1015,9 hPa 0,0 mm 24,8 km/h (4 Bft) W 270 -2,2 C 27,4 km/h (4 Bft)
02.04.2015 18:10 0,3 C -0,5 C 83 % 1015,9 hPa 0,0 mm 21,5 km/h (4 Bft) NW 315 -2,2 C 28,5 km/h (4 Bft)
02.04.2015 18:15 0,3 C -0,4 C 83 % 1015,9 hPa 0,0 mm 18,5 km/h (3 Bft) W 270 -2,2 C 27,4 km/h (4 Bft)
02.04.2015 18:20 0,3 C -0,4 C 83 % 1015,9 hPa 0,0 mm 21,5 km/h (4 Bft) W 270 -2,2 C 24,4 km/h (4 Bft)
02.04.2015 18:25 0,3 C -0,5 C 84 % 1016,4 hPa 0,0 mm 22,9 km/h (4 Bft) W-SW 247 -2,1 C 35,2 km/h (5 Bft)
02.04.2015 18:30 0,3 C -0,5 C 84 % 1016,4 hPa 0,0 mm 21,5 km/h (4 Bft) W-SW 247 -2,1 C 22,2 km/h (4 Bft)
02.04.2015 18:35 0,3 C -0,4 C 84 % 1016,4 hPa 0,0 mm 18,9 km/h (3 Bft) W-SW 247 -2,1 C 22,2 km/h (4 Bft)
02.04.2015 18:40 0,3 C -0,7 C 84 % 1016,4 hPa 0,0 mm 17,0 km/h (3 Bft) W 270 -2,1 C 18,9 km/h (3 Bft)
02.04.2015 18:45 0,3 C -0,6 C 84 % 1016,6 hPa 0,0 mm 16,3 km/h (3 Bft) W-SW 247 -2,1 C 14,4 km/h (3 Bft)
02.04.2015 18:50 0,3 C -0,5 C 84 % 1016,6 hPa 0,0 mm 13,7 km/h (3 Bft) W-SW 247 -2,1 C 17,8 km/h (3 Bft)
02.04.2015 18:55 0,2 C -0,3 C 85 % 1016,6 hPa 0,0 mm 11,1 km/h (2 Bft) W 270 -2,0 C 15,2 km/h (3 Bft)
02.04.2015 19:00 0,2 C -0,3 C 85 % 1016,6 hPa 0,0 mm 10,7 km/h (2 Bft) W 270 -2,0 C 10,7 km/h (2 Bft)
02.04.2015 19:05 0,2 C -0,3 C 85 % 1016,9 hPa 0,0 mm 10,4 km/h (2 Bft) S-SO 157 -2,0 C 23,3 km/h (4 Bft)
02.04.2015 19:10 0,3 C -0,3 C 85 % 1016,9 hPa 0,0 mm 10,4 km/h (2 Bft) W 270 -1,9 C 13,3 km/h (3 Bft)
02.04.2015 19:15 0,3 C -0,4 C 85 % 1016,9 hPa 0,0 mm 12,2 km/h (2 Bft) W-SW 247 -1,9 C 8,9 km/h (2 Bft)
02.04.2015 19:20 0,3 C -0,4 C 85 % 1016,9 hPa 0,0 mm 14,1 km/h (3 Bft) SW 225 -1,9 C 21,8 km/h (4 Bft)
02.04.2015 19:25 0,3 C -0,5 C 85 % 1017,3 hPa 0,0 mm 15,2 km/h (3 Bft) S-SW 202 -1,9 C 18,9 km/h (3 Bft)
02.04.2015 19:30 0,3 C -0,5 C 85 % 1017,3 hPa 0,0 mm 15,2 km/h (3 Bft) W 270 -1,9 C 17,8 km/h (3 Bft)
02.04.2015 19:35 0,4 C -0,5 C 85 % 1017,3 hPa 0,0 mm 14,8 km/h (3 Bft) W-SW 247 -1,8 C 10,4 km/h (2 Bft)
02.04.2015 19:40 0,4 C -0,5 C 85 % 1017,3 hPa 0,0 mm 14,4 km/h (3 Bft) SW 225 -1,8 C 24,1 km/h (4 Bft)
02.04.2015 19:45 0,4 C -0,5 C 86 % 1017,8 hPa 0,0 mm 16,7 km/h (3 Bft) W-SW 247 -1,7 C 13,0 km/h (3 Bft)
02.04.2015 19:50 0,5 C -0,3 C 86 % 1017,8 hPa 0,0 mm 18,5 km/h (3 Bft) S 180 -1,6 C 18,5 km/h (3 Bft)
02.04.2015 19:55 0,4 C -0,5 C 86 % 1017,8 hPa 0,0 mm 15,2 km/h (3 Bft) W-SW 247 -1,7 C 6,7 km/h (2 Bft)
02.04.2015 20:00 0,4 C -0,4 C 85 % 1017,8 hPa 0,0 mm 12,2 km/h (2 Bft) W 270 -1,8 C 12,6 km/h (3 Bft)
02.04.2015 20:05 0,5 C -0,4 C 85 % 1018,1 hPa 0,0 mm 13,7 km/h (3 Bft) W-SW 247 -1,7 C 12,6 km/h (3 Bft)
02.04.2015 20:10 0,4 C -0,6 C 89 % 1018,1 hPa 0,0 mm 15,9 km/h (3 Bft) W-SW 247 -1,2 C 15,2 km/h (3 Bft)
02.04.2015 20:15 0,3 C -0,6 C 89 % 1018,1 hPa 0,0 mm 13,7 km/h (3 Bft) W-SW 247 -1,3 C 21,1 km/h (4 Bft)
02.04.2015 20:20 0,4 C -0,5 C 89 % 1018,1 hPa 0,0 mm 12,2 km/h (2 Bft) W 270 -1,2 C 10,4 km/h (2 Bft)
02.04.2015 20:25 0,3 C -0,5 C 89 % 1018,6 hPa 0,0 mm 10,7 km/h (2 Bft) NW 315 -1,3 C 7,0 km/h (2 Bft)
02.04.2015 20:30 0,3 C -0,4 C 89 % 1018,6 hPa 0,0 mm 10,0 km/h (2 Bft) W-NW 292 -1,3 C 11,1 km/h (2 Bft)
02.04.2015 20:35 0,3 C -0,6 C 88 % 1018,6 hPa 0,0 mm 12,2 km/h (2 Bft) W-SW 247 -1,4 C 10,0 km/h (2 Bft)
02.04.2015 20:40 0,3 C -0,7 C 88 % 1018,6 hPa 0,0 mm 13,0 km/h (3 Bft) W-SW 247 -1,4 C 14,1 km/h (3 Bft)
02.04.2015 20:45 0,4 C -0,6 C 88 % 1018,8 hPa 0,0 mm 14,4 km/h (3 Bft) W 270 -1,3 C 9,3 km/h (2 Bft)
02.04.2015 20:50 0,4 C -0,7 C 88 % 1018,8 hPa 0,0 mm 15,2 km/h (3 Bft) S 180 -1,3 C 20,0 km/h (4 Bft)
02.04.2015 20:55 0,6 C -0,6 C 88 % 1018,8 hPa 0,0 mm 17,4 km/h (3 Bft) W-NW 292 -1,2 C 19,6 km/h (3 Bft)
02.04.2015 21:00 0,6 C -0,3 C 88 % 1018,8 hPa 0,0 mm 20,4 km/h (4 Bft) W-SW 247 -1,2 C 12,6 km/h (3 Bft)
02.04.2015 21:05 0,5 C -0,6 C 87 % 1019,1 hPa 0,0 mm 16,7 km/h (3 Bft) W-SW 247 -1,4 C 8,1 km/h (2 Bft)
02.04.2015 21:10 0,4 C -0,4 C 87 % 1019,1 hPa 0,0 mm 11,8 km/h (2 Bft) NO 45 -1,5 C 15,9 km/h (3 Bft)
02.04.2015 21:15 0,5 C -0,4 C 84 % 1019,1 hPa 0,0 mm 13,0 km/h (3 Bft) S-SW 202 -1,9 C 15,2 km/h (3 Bft)
02.04.2015 21:20 0,6 C -0,5 C 87 % 1019,1 hPa 0,0 mm 14,4 km/h (3 Bft) SW 225 -1,3 C 16,3 km/h (3 Bft)
02.04.2015 21:25 0,6 C -0,5 C 87 % 1019,1 hPa 0,0 mm 15,2 km/h (3 Bft) SW 225 -1,3 C 17,0 km/h (3 Bft)
02.04.2015 21:30 0,6 C -0,5 C 86 % 1019,1 hPa 0,0 mm 15,5 km/h (3 Bft) S 180 -1,5 C 14,4 km/h (3 Bft)
02.04.2015 21:35 0,6 C -0,6 C 86 % 1019,1 hPa 0,0 mm 16,7 km/h (3 Bft) W-SW 247 -1,5 C 18,1 km/h (3 Bft)
02.04.2015 21:40 0,3 C -0,7 C 86 % 1019,1 hPa 0,0 mm 15,2 km/h (3 Bft) W-NW 292 -1,8 C 15,2 km/h (3 Bft)
02.04.2015 21:45 0,3 C -0,7 C 86 % 1019,4 hPa 0,0 mm 13,0 km/h (3 Bft) SW 225 -1,8 C 11,5 km/h (2 Bft)
02.04.2015 21:50 0,3 C -0,7 C 86 % 1019,4 hPa 0,0 mm 13,0 km/h (3 Bft) W-SW 247 -1,8 C 14,4 km/h (3 Bft)
02.04.2015 21:55 0,5 C -0,6 C 86 % 1019,4 hPa 0,0 mm 14,1 km/h (3 Bft) W-SW 247 -1,6 C 22,6 km/h (4 Bft)
02.04.2015 22:00 0,6 C -0,4 C 86 % 1019,4 hPa 0,0 mm 13,7 km/h (3 Bft) W-SW 247 -1,5 C 8,9 km/h (2 Bft)
02.04.2015 22:05 0,6 C -0,3 C 86 % 1019,9 hPa 0,0 mm 11,8 km/h (2 Bft) W-SW 247 -1,5 C 16,3 km/h (3 Bft)
02.04.2015 22:10 0,7 C -0,1 C 86 % 1019,9 hPa 0,0 mm 11,1 km/h (2 Bft) S-SW 202 -1,4 C 9,6 km/h (2 Bft)
02.04.2015 22:15 0,6 C -0,1 C 86 % 1019,9 hPa 0,0 mm 9,6 km/h (2 Bft) W-SW 247 -1,5 C 7,4 km/h (2 Bft)
02.04.2015 22:20 0,6 C 0,1 C 86 % 1019,9 hPa 0,0 mm 7,4 km/h (2 Bft) W-SW 247 -1,5 C 4,4 km/h (1 Bft)
02.04.2015 22:25 0,4 C 0,2 C 86 % 1019,6 hPa 0,0 mm 5,2 km/h (1 Bft) W-SW 247 -1,7 C 5,9 km/h (2 Bft)
02.04.2015 22:30 0,5 C 0,2 C 86 % 1019,6 hPa 0,0 mm 4,4 km/h (1 Bft) W-SW 247 -1,6 C 7,4 km/h (2 Bft)
02.04.2015 22:35 0,5 C 0,2 C 86 % 1019,6 hPa 0,0 mm 4,4 km/h (1 Bft) O-NO 67 -1,6 C 0,0 km/h (0 Bft)
02.04.2015 22:40 0,4 C 0,2 C 86 % 1019,6 hPa 0,0 mm 3,3 km/h (1 Bft) W 270 -1,7 C 5,6 km/h (1 Bft)
02.04.2015 22:45 0,4 C 0,2 C 86 % 1019,8 hPa 0,0 mm 3,3 km/h (1 Bft) W 270 -1,7 C 9,6 km/h (2 Bft)
02.04.2015 22:50 0,4 C 0,2 C 86 % 1019,8 hPa 0,0 mm 4,4 km/h (1 Bft) SW 225 -1,7 C 5,2 km/h (1 Bft)
02.04.2015 22:55 0,3 C 0,1 C 86 % 1019,8 hPa 0,0 mm 3,3 km/h (1 Bft) N-NW 337 -1,8 C 0,0 km/h (0 Bft)
02.04.2015 23:00 0,3 C 0,1 C 86 % 1019,8 hPa 0,0 mm 1,9 km/h (1 Bft) O-SO 112 -1,8 C 0,0 km/h (0 Bft)
02.04.2015 23:05 0,3 C 0,1 C 86 % 1019,8 hPa 0,0 mm 1,9 km/h (1 Bft) NW 315 -1,8 C 0,0 km/h (0 Bft)
02.04.2015 23:10 0,3 C 0,1 C 86 % 1019,8 hPa 0,0 mm 2,6 km/h (1 Bft) NW 315 -1,8 C 0,0 km/h (0 Bft)
02.04.2015 23:15 0,3 C 0,1 C 86 % 1019,8 hPa 0,0 mm 3,0 km/h (1 Bft) W-NW 292 -1,8 C 11,5 km/h (2 Bft)
02.04.2015 23:20 0,3 C 0,1 C 87 % 1019,8 hPa 0,0 mm 3,7 km/h (1 Bft) W 270 -1,6 C 16,7 km/h (3 Bft)
02.04.2015 23:25 0,5 C -0,1 C 87 % 1020,1 hPa 0,0 mm 8,9 km/h (2 Bft) W 270 -1,4 C 17,8 km/h (3 Bft)
02.04.2015 23:30 0,5 C -0,3 C 87 % 1020,1 hPa 0,0 mm 11,1 km/h (2 Bft) NW 315 -1,4 C 8,1 km/h (2 Bft)
02.04.2015 23:35 0,4 C -0,3 C 87 % 1020,1 hPa 0,0 mm 11,1 km/h (2 Bft) W-NW 292 -1,5 C 14,1 km/h (3 Bft)
02.04.2015 23:40 0,4 C -0,3 C 88 % 1020,1 hPa 0,0 mm 10,4 km/h (2 Bft) W-SW 247 -1,3 C 17,8 km/h (3 Bft)
02.04.2015 23:45 0,5 C -0,5 C 88 % 1020,0 hPa 0,0 mm 14,1 km/h (3 Bft) W 270 -1,3 C 15,5 km/h (3 Bft)
02.04.2015 23:50 0,5 C -0,6 C 88 % 1020,0 hPa 0,0 mm 16,3 km/h (3 Bft) W 270 -1,3 C 24,4 km/h (4 Bft)
02.04.2015 23:55 0,4 C -0,5 C 88 % 1020,0 hPa 0,0 mm 14,1 km/h (3 Bft) W 270 -1,3 C 22,6 km/h (4 Bft)
_ Min-Zeit 04:55 17:30 10:50 14:00 - 23:05 - - 01:55 23:10
Minimum _ -0,2 C -1,1 C 72 % 1011,2 hPa - 1,9 km/h (1 Bft) - - -3,7 C 0,0 km/h (0 Bft)
_ Max-Zeit 17:05 16:50 20:30 00:00 14:25 16:55 - - 14:55 16:55
Maximum _ 4,3 C 4,2 C 89 % 1021,1 hPa 0,7 mm 38,5 km/h
W-SW (5 Bft)
- - 0,9 C 94,0 km/h
W-SW (10 Bft)
Durchschnitt _ 1,6 C 0,8 C 79 % 1015,8 hPa #2,7 mm 21,0 km/h (4 Bft) W-SW - -1,7 C 28,5 km/h (4 Bft)